#timestamp,LO_Frequency,Hit,StdDev 
1634677215.8,286046994.9,N
1634677235.6,286046994.9,N
1634677255.5,286046997.5,N
1634677275.3,286046997.8,N
1634677295.1,286046997.9,N
1634677315.9,286046999.6,N
1634677335.7,286046997.6,N
1634677355.5,286046997.8,N
1634677375.4,286046995.6,N
1634677395.2,286046998.0,N
1634677415.0,286046996.9,N
1634677415.9,286046996.9,N
1634677435.8,286046997.6,N
1634677455.6,286046995.3,Y
1634677475.4,286046996.6,P
1634677495.3,286046998.2,N
1634677515.1,286046998.2,N
1634677516.0,286046998.2,N
1634677535.8,286046996.6,Y
1634677555.7,286046999.7,P
1634677575.5,286047000.9,N
1634677595.3,286046998.1,N
1634677615.2,286047000.3,N
1634677635.9,286046998.5,N
1634677655.7,286046998.5,N
1634677675.6,286047000.7,N
1634677695.4,286046996.5,Y
1634677715.2,286047001.0,P
1634677735.1,286047000.7,N
1634677736.0,286047000.7,N
1634677755.8,286047000.7,N
1634677775.6,286047002.8,Y
1634677795.5,286047000.2,P
1634677815.3,286047000.2,N
1634677835.1,286047002.4,P
1634677855.9,286047001.5,N
1634677875.7,286047002.4,N
1634677895.5,286047002.4,N
1634677915.4,286047001.9,N
1634677935.2,286047001.6,N
1634677955.0,286047002.6,N
1634677955.9,286047002.6,N
1634677975.8,286047001.8,N
1634677995.6,286047002.7,Y
1634678015.4,286047001.2,P
1634678035.3,286046998.5,P
1634678055.1,286047000.7,N
1634678056.0,286047000.7,N
1634678075.8,286046998.2,N
1634678095.7,286046996.9,N
1634678115.5,286046997.3,N
1634678135.3,286046997.1,N
1634678155.2,286046997.2,N
1634678175.9,286046998.7,N
1634678195.7,286047001.2,N
1634678215.6,286047000.3,N
1634678235.4,286047000.8,N
1634678255.2,286046998.1,N
1634678275.1,286047000.2,N
1634678276.0,286047000.2,N
1634678295.8,286047001.0,N
1634678315.6,286047000.0,N
1634678335.5,286046998.5,N
1634678355.3,286046998.5,N
1634678375.1,286047001.1,N
1634678395.9,286046999.4,N
1634678415.7,286046998.9,N
1634678435.5,286046998.7,N
1634678455.3,286046999.5,N
1634678475.2,286046996.6,N
1634678495.0,286046997.8,N
1634678495.9,286046997.8,N
1634678515.7,286046997.3,N
1634678535.6,286046997.5,N
1634678555.4,286046996.9,N
1634678575.2,286046996.9,N
1634678595.1,286046999.2,N
1634678596.0,286046999.2,N
1634678615.8,286046996.6,N
1634678635.6,286046997.2,N
1634678655.5,286046996.5,N
1634678675.3,286046997.0,N
1634678695.1,286046996.6,N
1634678715.9,286046996.5,N
1634678735.7,286046997.0,N
1634678755.5,286046998.7,N
1634678775.4,286047001.1,N
1634678795.2,286047001.2,N
1634678815.0,286046999.3,N
1634678815.9,286046999.3,N
1634678835.8,286047001.0,N
1634678855.6,286046998.5,N
1634678875.4,286046998.4,N
1634678895.3,286046998.6,N
1634678915.1,286046998.7,N
1634678935.8,286046998.3,N
1634678955.7,286046998.2,N
1634678975.5,286046998.6,N
1634678995.3,286047002.7,N
1634679015.2,286047004.0,N
1634679035.0,286047003.9,N
1634679035.9,286047003.9,N
1634679055.7,286047003.5,N
1634679075.6,286047001.9,N
1634679095.4,286047001.5,N
1634679115.2,286047002.4,N
1634679135.1,286047002.4,N
1634679136.0,286047002.4,N
1634679155.8,286047004.4,N
1634679175.6,286047002.0,N
1634679195.5,286047001.5,N
1634679215.3,286047001.3,N
1634679235.1,286047006.0,N
1634679255.9,286047005.6,N
1634679275.7,286047004.7,N
1634679295.5,286047003.0,N
1634679315.4,286047007.4,Y
1634679335.2,286047006.0,P
1634679355.0,286047005.9,N
1634679355.9,286047005.9,N
1634679375.8,286047004.5,N
1634679395.6,286047004.8,N
1634679415.4,286047002.9,N
1634679435.3,286047005.2,Y
1634679455.1,286047000.2,P
1634679475.8,286047002.6,N
1634679495.7,286047002.5,N
1634679515.5,286047002.1,N
1634679535.3,286047001.8,N
1634679555.2,286047001.9,N
1634679575.0,286047003.9,Y
1634679575.9,286047003.9,P
1634679595.7,286047000.7,N
1634679615.6,286046999.9,N
1634679635.4,286046999.7,N
1634679655.2,286047003.9,N
1634679675.1,286047005.5,Y
1634679676.0,286047005.5,P
1634679695.8,286047003.9,N
1634679715.7,286047004.1,N
1634679735.5,286047003.0,N
1634679755.3,286047003.4,N
1634679775.2,286047004.2,Y
1634679795.9,286046998.6,P
1634679815.7,286047000.6,N
1634679835.6,286046998.6,N
1634679855.4,286047000.5,N
1634679875.2,286046999.7,N
1634679895.1,286047001.6,N
1634679896.0,286047001.6,N
1634679915.8,286047000.3,N
1634679935.6,286047001.6,N
1634679955.5,286047003.1,N
1634679975.3,286047005.7,Y
1634679995.1,286047003.7,P
1634680015.9,286047005.8,P
1634680035.7,286047007.6,P
1634680055.5,286047006.9,N
1634680075.4,286047006.7,N
1634680095.2,286047007.0,Y
1634680115.0,286047002.0,P
1634680115.9,286047002.0,N
1634680135.8,286047002.5,N
1634680155.6,286047002.4,N
1634680175.4,286047002.4,N
1634680195.3,286047001.4,N
1634680215.1,286047003.8,Y
1634680235.8,286047002.7,P
1634680255.7,286047002.7,P
1634680275.5,286047002.5,P
1634680295.3,286047002.6,Y
1634680315.2,286046998.8,P
1634680335.0,286047000.8,N
1634680335.9,286047000.8,N
1634680355.7,286046998.7,N
1634680375.6,286047001.1,N
1634680395.4,286047000.1,N
1634680415.2,286047002.8,N
1634680435.1,286047002.4,N
1634680436.0,286047002.4,N
1634680455.8,286047002.5,N
1634680475.6,286047002.7,N
1634680495.5,286047000.3,N
1634680515.3,286047002.3,N
1634680535.1,286047000.3,N
1634680555.9,286047002.0,N
1634680575.7,286047003.5,N
1634680595.5,286047004.2,N
1634680615.4,286047003.8,N
1634680635.2,286047003.6,N
1634680655.0,286047006.0,Y
1634680655.9,286047006.0,P
1634680675.8,286047002.0,N
1634680695.6,286047005.6,N
1634680715.4,286047003.0,N
1634680735.3,286047005.9,Y
1634680755.1,286046999.7,P
1634680775.8,286047002.6,N
1634680795.7,286047002.1,N
